Flag for U.S.A. Weather past 2 weeks in Pasadena, California, U.S.A.

Now
97 °F

Sunny.


Feels Like: 95 °F
Forecast: 70 / 95 °F
Wind: 13 mph from South

Location: Burbank-Glendale-Pasadena Airport

Current Time: Aug 28, 2015 at 5:35:33 PM

Latest Report: Aug 28, 2015 at 4:53 PM


Visibility: 10 mi

Pressure: 29.77 "Hg

Humidity: 23%

Dew point: 53 °F

Location of PasadenaLocation

Historic Weather in Pasadena — Graph

°F

Pasadena temperature yesterday

Maximum temperature yesterday: 98 °F (at 2:53 PM)
Minimum temperature yesterday: 74 °F (at 2:53 AM)
Average temperature yesterday: 85 °F

Past Weeks' High & Low Weather Summary

 TemperatureHumidityPressure
High102 °F (Aug 15, 1:53 PM)88% (Aug 19, 4:56 AM)29.95 "Hg (Aug 19, 4:56 AM)
Low66 °F (Aug 20, 2:53 AM)7% (Aug 13, 5:53 PM)29.75 "Hg (Aug 16, 6:53 PM)
Average80 °F53%29.86 "Hg
* Reported Aug 13 3:53 PM — Aug 28 3:53 PM, Pasadena, Weather by CustomWeather, © 2015

Note: Actual official high and low records may vary slightly from our data, if they occured in-between our weather recording intervals... More about our weather records

Advertising

Pasadena weather history for previous 24 hours

 ConditionsComfort  
Time TempWeatherWind HumidityBarometerVisibility
3:53 PM
Fri, Aug 28
99 °FSunny.9 mph19%29.78 "Hg10 mi
2:53 PM101 °FSunny.10 mph19%29.78 "Hg10 mi
1:53 PM101 °FSunny.6 mph22%29.80 "Hg10 mi
12:53 PM99 °FSunny.7 mph21%29.82 "Hg10 mi
11:53 AM98 °FSunny.7 mph23%29.85 "Hg10 mi
10:53 AM93 °FSunny.No wind27%29.87 "Hg10 mi
9:53 AM90 °FSunny.No wind32%29.87 "Hg10 mi
8:53 AM83 °FSunny.No wind43%29.88 "Hg10 mi
7:53 AM79 °FSunny.No wind50%29.87 "Hg10 mi
5:53 AM75 °FClear.No wind48%29.85 "Hg10 mi
4:53 AM76 °FPassing clouds.No wind48%29.85 "Hg10 mi
3:53 AM76 °FClear.5 mph47%29.85 "Hg10 mi
2:53 AM77 °FClear.No wind52%29.86 "Hg10 mi
1:53 AM78 °FClear.3 mph54%29.87 "Hg10 mi
12:53 AM78 °FClear.3 mph54%29.87 "Hg10 mi
11:53 PM
Thu, Aug 27
79 °FClear.5 mph54%29.88 "Hg10 mi
10:53 PM79 °FClear.5 mph54%29.88 "Hg10 mi
9:53 PM81 °FClear.7 mph53%29.88 "Hg10 mi
8:53 PM83 °FClear.9 mph50%29.87 "Hg10 mi
7:53 PM87 °FSunny.7 mph37%29.83 "Hg10 mi
6:53 PM90 °FSunny.6 mph32%29.83 "Hg10 mi
5:53 PM93 °FSunny.7 mph28%29.83 "Hg10 mi
Weather by CustomWeather, © 2015

See weather overviewHow to use our weather pages